Date String (YYYY-MM-DD hh:mm:ss) UTC,Instrument flags,absolute air pressure of the measurement (hPa),sample flow rate (lpm),inlet stack bypass flow (lpm),air temperature of the measurement (°C),ambient temperature measured by the external sensor (°C),aerosol sample conditioner tube jacket temperature (°C),OPC LED temperature (°C),internal box temperature (°C),relative humidity of the measurement (%),span deviation,mass concentration of particles derived from Lorenz-Mie calculation of OPC scattering (μg/m³),mass concentration of particles derived from Lorenz-Mie calculation of OPC scattering (μg/m³),mass concentration of particles derived from Lorenz-Mie calculation of OPC scattering (μg/m³)
DateTimeUTC,F1_M11,P_M11,Q1_M11,Q2_M11,T1_M11,T2_M11,T3_M11,T4_M11,T5_M11,U1_M11,ZSPAN_M11,X0_M11,X2_M11,X1_M11
2024-01-20 18:00:00,SystemResetWarning,0827.7,5.00,000.00,018.8,018.0,000.0,027.2,020.0,13.5,0001.9,0016.93,0011.42,0010.72
2024-01-20 18:01:00,SystemResetWarning,0827.7,5.00,000.00,018.8,018.0,000.0,027.2,020.0,13.2,0001.5,0016.04,0011.33,0010.63
2024-01-20 18:02:00,SystemResetWarning,0827.7,5.00,000.00,018.8,018.0,000.0,027.2,020.0,13.0,0001.2,0015.90,0011.22,0010.55
2024-01-20 18:03:00,SystemResetWarning,0827.7,5.00,000.00,018.8,018.0,000.0,027.2,020.0,12.9,0001.3,0016.00,0011.15,0010.47
2024-01-20 18:04:00,SystemResetWarning,0827.7,5.00,000.00,018.8,018.0,000.0,027.2,020.0,12.9,0001.5,0015.72,0011.06,0010.37
2024-01-20 18:05:00,SystemResetWarning,0827.7,4.99,000.00,018.8,018.0,000.0,027.2,020.0,13.1,0001.6,0015.48,0010.89,0010.23
2024-01-20 18:06:00,SystemResetWarning,0827.5,5.00,000.00,018.8,018.0,000.0,027.2,020.0,13.1,0001.6,0015.37,0010.76,0010.11
2024-01-20 18:07:00,SystemResetWarning,0827.6,5.00,000.00,018.8,018.0,000.0,027.2,020.0,13.2,0001.4,0015.16,0010.66,0010.01
2024-01-20 18:08:00,SystemResetWarning,0827.5,4.99,000.00,018.8,017.9,000.0,027.2,020.0,13.4,0001.6,0015.07,0010.61,0009.95
2024-01-20 18:09:00,SystemResetWarning,0827.4,5.01,000.00,018.8,017.9,000.0,027.2,020.0,13.6,0001.6,0015.25,0010.59,0009.88
2024-01-20 18:10:00,SystemResetWarning,0827.3,5.01,000.00,018.8,017.9,000.0,027.2,020.0,13.6,0001.2,0015.40,0010.49,0009.75
2024-01-20 18:11:00,SystemResetWarning,0827.4,5.01,000.00,018.8,017.9,000.0,027.2,020.0,13.6,0001.0,0015.80,0010.45,0009.70
2024-01-20 18:12:00,SystemResetWarning,0827.4,5.00,000.00,018.8,017.9,000.0,027.2,020.0,13.7,0001.3,0015.83,0010.45,0009.70
2024-01-20 18:13:00,SystemResetWarning,0827.4,5.00,000.00,018.7,017.9,000.0,027.2,020.0,13.8,0002.0,0015.81,0010.47,0009.72
2024-01-20 18:14:00,SystemResetWarning,0827.4,5.00,000.00,018.7,017.9,000.0,027.2,020.0,13.7,0002.5,0015.68,0010.55,0009.80
2024-01-20 18:15:00,SystemResetWarning,0827.4,4.99,000.00,018.7,017.9,000.0,027.2,020.0,13.7,0001.9,0015.67,0010.60,0009.86
2024-01-20 18:16:00,SystemResetWarning,0827.4,4.99,000.00,018.7,017.9,000.0,027.2,020.0,13.7,0002.2,0015.88,0010.75,0009.98
2024-01-20 18:17:00,SystemResetWarning,0827.4,5.00,000.00,018.7,017.9,000.0,027.2,020.0,13.6,0002.7,0016.30,0010.86,0010.09
2024-01-20 18:18:00,SystemResetWarning,0827.3,5.01,000.00,018.7,017.9,000.0,027.2,020.0,13.5,0003.2,0017.16,0011.06,0010.23
2024-01-20 18:19:00,SystemResetWarning,0827.3,5.01,000.00,018.7,017.8,000.0,027.2,020.0,13.5,0002.8,0017.89,0011.17,0010.35
2024-01-20 18:20:00,SystemResetWarning,0827.3,5.00,000.00,018.7,017.8,000.0,027.2,020.0,13.4,0002.4,0018.43,0011.23,0010.43
2024-01-20 18:21:00,SystemResetWarning,0827.2,5.00,000.00,018.7,017.8,000.0,027.2,020.0,13.7,0002.4,0018.37,0011.27,0010.48
2024-01-20 18:22:00,SystemResetWarning,0827.2,5.00,000.00,018.7,017.8,000.0,027.2,020.0,13.9,0002.2,0017.90,0011.33,0010.56
2024-01-20 18:23:00,SystemResetWarning,0827.2,5.00,000.00,018.7,017.9,000.0,027.2,020.0,13.9,0001.8,0018.13,0011.44,0010.66
2024-01-20 18:24:00,SystemResetWarning,0827.1,5.00,000.00,018.7,017.9,000.0,027.2,020.0,13.9,0001.7,0019.66,0011.55,0010.77
2024-01-20 18:25:00,SystemResetWarning,0827.2,5.00,000.00,018.7,017.9,000.0,027.2,020.0,13.9,0001.3,0019.97,0011.60,0010.80
2024-01-20 18:26:00,SystemResetWarning,0827.1,5.00,000.00,018.7,017.9,000.0,027.2,020.0,14.0,0001.5,0019.94,0011.59,0010.79
2024-01-20 18:27:00,SystemResetWarning,0827.2,5.00,000.00,018.7,017.9,000.0,027.2,020.0,14.0,0001.0,0020.10,0011.63,0010.83
2024-01-20 18:28:00,SystemResetWarning,0827.1,5.02,000.00,018.7,017.9,000.0,027.2,020.0,13.9,0000.6,0020.32,0011.70,0010.85
2024-01-20 18:29:00,SystemResetWarning,0827.1,5.00,000.00,018.7,017.8,000.0,027.2,020.0,13.9,0000.9,0019.51,0011.70,0010.86
2024-01-20 18:30:00,SystemResetWarning,0827.1,4.99,000.00,018.7,017.8,000.0,027.2,020.0,13.8,0001.0,0019.12,0011.66,0010.83
2024-01-20 18:31:00,SystemResetWarning,0827.1,5.00,000.00,018.7,017.8,000.0,027.2,020.0,13.8,0001.4,0018.50,0011.72,0010.85
2024-01-20 18:32:00,SystemResetWarning,0827.1,5.00,000.00,018.7,017.8,000.0,027.2,020.0,13.8,0001.8,0019.12,0011.76,0010.89
2024-01-20 18:33:00,SystemResetWarning,0827.1,4.99,000.00,018.7,017.8,000.0,027.2,020.0,13.8,0001.7,0019.65,0011.82,0010.90
2024-01-20 18:34:00,SystemResetWarning,0827.1,5.01,000.00,018.7,017.8,000.0,027.2,020.0,13.9,0001.6,0019.50,0011.82,0010.90
2024-01-20 18:35:00,SystemResetWarning,0827.0,5.01,000.00,018.7,017.8,000.0,027.2,020.0,13.9,0001.8,0018.41,0011.88,0010.91
2024-01-20 18:36:00,SystemResetWarning,0827.0,5.00,000.00,018.7,017.8,000.0,027.2,020.1,13.9,0002.1,0018.00,0011.87,0010.93
2024-01-20 18:37:00,SystemResetWarning,0827.0,5.00,000.00,018.8,018.3,000.0,027.2,020.6,13.8,0001.8,0017.98,0011.93,0011.01
2024-01-20 18:38:00,SystemResetWarning,0826.9,5.00,000.00,018.9,019.1,000.0,027.2,020.9,13.7,0001.5,0017.96,0011.99,0011.08
2024-01-20 18:39:00,SystemResetWarning,0826.8,4.99,000.00,019.0,019.1,000.0,027.2,020.7,13.9,0001.2,0017.70,0012.00,0011.14
2024-01-20 18:40:00,SystemResetWarning,0826.8,4.99,000.00,019.0,019.0,000.0,027.2,020.4,13.9,0000.3,0017.94,0012.08,0011.27
2024-01-20 18:41:00,SystemResetWarning,0826.8,5.01,000.00,019.0,018.8,000.0,027.2,020.3,14.0,0000.3,0018.78,0012.21,0011.38
2024-01-20 18:42:00,SystemResetWarning,0826.7,5.00,000.00,019.0,018.7,000.0,027.2,020.2,14.0,0000.2,0019.22,0012.22,0011.39
2024-01-20 18:43:00,SystemResetWarning,0826.7,5.00,000.00,018.9,018.6,000.0,027.2,020.0,14.0,0000.2,0019.11,0012.19,0011.38
2024-01-20 18:44:00,SystemResetWarning,0826.7,5.01,000.00,018.9,018.4,000.0,027.2,020.0,14.0,0000.5,0018.99,0012.12,0011.35
2024-01-20 18:45:00,SystemResetWarning,0826.8,5.01,000.00,018.9,018.4,000.0,027.2,020.0,13.9,0000.9,0019.30,0012.13,0011.34
2024-01-20 18:46:00,SystemResetWarning,0826.8,4.99,000.00,018.8,018.3,000.0,027.3,020.0,13.9,0000.7,0019.00,0011.99,0011.26
2024-01-20 18:47:00,SystemResetWarning,0826.8,4.99,000.00,018.8,018.2,000.0,027.3,020.0,13.9,0000.9,0019.00,0011.89,0011.20
2024-01-20 18:48:00,SystemResetWarning,0826.7,4.99,000.00,018.8,018.2,000.0,027.3,020.0,14.0,0001.1,0019.09,0011.85,0011.16
2024-01-20 18:49:00,SystemResetWarning,0826.7,5.01,000.00,018.8,018.1,000.0,027.3,020.0,14.2,0002.2,0019.00,0011.77,0011.11
2024-01-20 18:50:00,SystemResetWarning,0826.7,5.01,000.00,018.8,018.1,000.0,027.3,020.0,14.2,0002.9,0019.11,0011.70,0011.04
2024-01-20 18:51:00,SystemResetWarning,0826.6,5.01,000.00,018.8,018.1,000.0,027.3,020.0,14.1,0003.4,0019.18,0011.68,0010.97
2024-01-20 18:52:00,SystemResetWarning,0826.6,5.01,000.00,018.8,018.0,000.0,027.3,020.0,14.1,0003.8,0018.59,0011.61,0010.90
2024-01-20 18:53:00,SystemResetWarning,0826.6,5.00,000.00,018.8,018.0,000.0,027.3,020.0,14.1,0002.3,0018.01,0011.58,0010.87
2024-01-20 18:54:00,SystemResetWarning,0826.6,4.99,000.00,018.8,018.0,000.0,027.3,020.0,14.1,0003.1,0018.00,0011.59,0010.89
2024-01-20 18:55:00,SystemResetWarning,0826.6,5.00,000.00,018.8,017.9,000.0,027.3,020.0,13.9,0003.3,0017.63,0011.65,0010.93
2024-01-20 18:56:00,SystemResetWarning,0826.6,4.99,000.00,018.8,017.9,000.0,027.3,020.0,13.9,0003.3,0017.31,0011.71,0010.98
2024-01-20 18:57:00,SystemResetWarning,0826.6,5.00,000.00,018.8,017.8,000.0,027.3,020.0,14.0,0003.5,0017.28,0011.80,0011.11
2024-01-20 18:58:00,SystemResetWarning,0826.6,5.01,000.00,018.8,017.8,000.0,027.3,020.0,14.0,0003.5,0017.58,0012.04,0011.31
2024-01-20 18:59:00,SystemResetWarning,0826.5,5.00,000.00,018.8,017.8,000.0,027.3,020.0,14.0,0003.4,0017.82,0012.24,0011.47
